QPF
0.00 0.00 0.02 0.04 0.06 0.08 0.05 0.03 0.03 0.01 0.01 0.00 0.00 0.00 0.00 0.00 0.00 0.01 0.00 0.00 0.00 0.00 0.00 0.00 0.00 0.00 0.00 0.00 0.00 0.00 0.00 0.00 0.00 0.00 0.00 0.00 0.00 0.00 0.00 0.00 0.00 0.00 0.00 0.00 0.00 0.00 0.00 0.00 0.00
0.00 0.00 0.01 0.03 0.06 0.09 0.03 0.01 0.01 0.01 0.01 0.00 0.00 0.00 0.00 0.00 0.00 0.00 0.00 0.00 0.00 0.00 0.00 0.00 0.00 0.00 0.00 0.00 0.00 0.00 0.00 0.00 0.00 0.00 0.00 0.00 0.00 0.00 0.00 0.00 0.00 0.00 0.00 0.00 0.00 0.00 0.00 0.00 0.00
0.00 0.00 0.00 0.02 0.06 0.05 0.02 0.00 0.00 0.00 0.00 0.00 0.00 0.00 0.00 0.00 0.00 0.00 0.00 0.00 0.00 0.00 0.00 0.00 0.00 0.00 0.00 0.00 0.00 0.00 0.00 0.00 0.00 0.00 0.00 0.00 0.00 0.00 0.00 0.00 0.00 0.00 0.00 0.01 0.00 0.00 0.00 0.00 0.00
0.00 0.00 0.00 0.00 0.01 0.01 0.00 0.00 0.01 0.00 0.00 0.01 0.01 0.00 0.00 0.00 0.00 0.00 0.00 0.00 0.00 0.00 0.00 0.00 0.00 0.00 0.00 0.00 0.00 0.00 0.00 0.00 0.00 0.00 0.00 0.00 0.00 0.00 0.00 0.00 0.00 0.00 0.00 0.00 0.00 0.00 0.00 0.00 0.00
0.00 0.00 0.00 0.00 0.00 0.00 0.00 0.00 0.00 0.00 0.00 0.01 0.01 0.01 0.01 0.00 0.00 0.00 0.00 0.00 0.00 0.00 0.00 0.00 0.00 0.00 0.00 0.00 0.00 0.00 0.00 0.00 0.00 0.00 0.00 0.00 0.00 0.00 0.00 0.00 0.00 0.00 0.00 0.00 0.00 0.00 0.00 0.00 0.00
0.00 0.00 0.00 0.00 0.00 0.00 0.00 0.00 0.00 0.00 0.00 0.01 0.02 0.02 0.01 0.01 0.00 0.00 0.00 0.00 0.00 0.00 0.00 0.00 0.00 0.00 0.00 0.00 0.00 0.00 0.00 0.00 0.00 0.00 0.00 0.00 0.00 0.00 0.00 0.00 0.00 0.00 0.00 0.00 0.00 0.00 0.00 0.00 0.00
0.00 0.00 0.00 0.00 0.00 0.00 0.00 0.00 0.00 0.00 0.00 0.01 0.05 0.09 0.04 0.02 0.02 0.01 0.01 0.01 0.00 0.00 0.00 0.00 0.00 0.00 0.00 0.00 0.00 0.00 0.00 0.00 0.00 0.00 0.00 0.00 0.00 0.00 0.00 0.00 0.00 0.01 0.01 0.00 0.00 0.00 0.00 0.00 0.00
0.00 0.00 0.00 0.00 0.00 0.00 0.00 0.00 0.00 0.00 0.01 0.02 0.11 0.17 0.09 0.04 0.02 0.01 0.02 0.02 0.02 0.01 0.01 0.00 0.00 0.00 0.00 0.00 0.00 0.00 0.00 0.00 0.00 0.00 0.00 0.00 0.00 0.00 0.01 0.01 0.01 0.01 0.01 0.01 0.01 0.01 0.00 0.00 0.00
0.00 0.00 0.00 0.00 0.00 0.00 0.00 0.00 0.00 0.00 0.01 0.05 0.10 0.13 0.12 0.03 0.02 0.02 0.03 0.04 0.04 0.02 0.01 0.00 0.00 0.00 0.00 0.00 0.01 0.01 0.00 0.00 0.00 0.00 0.00 0.00 0.00 0.00 0.01 0.01 0.03 0.03 0.03 0.03 0.03 0.02 0.02 0.01 0.01
0.00 0.00 0.00 0.00 0.00 0.00 0.00 0.00 0.00 0.01 0.01 0.06 0.06 0.05 0.06 0.06 0.05 0.04 0.04 0.08 0.12 0.04 0.02 0.01 0.01 0.01 0.01 0.01 0.02 0.02 0.01 0.01 0.01 0.01 0.01 0.01 0.00 0.01 0.01 0.03 0.08 0.09 0.09 0.08 0.07 0.06 0.05 0.04 0.02
0.00 0.00 0.00 0.00 0.00 0.00 0.00 0.00 0.00 0.00 0.02 0.04 0.04 0.04 0.06 0.14 0.17 0.08 0.06 0.12 0.10 0.04 0.03 0.03 0.04 0.04 0.03 0.03 0.03 0.02 0.03 0.04 0.05 0.04 0.04 0.03 0.02 0.02 0.03 0.04 0.09 0.12 0.15 0.13 0.13 0.13 0.11 0.08 0.05
0.00 0.00 0.00 0.00 0.00 0.00 0.00 0.00 0.00 0.01 0.02 0.02 0.01 0.02 0.04 0.07 0.08 0.09 0.11 0.12 0.08 0.06 0.06 0.07 0.09 0.09 0.07 0.07 0.06 0.06 0.06 0.06 0.07 0.08 0.08 0.08 0.07 0.05 0.04 0.06 0.09 0.12 0.15 0.17 0.19 0.19 0.19 0.17 0.12
0.00 0.00 0.00 0.00 0.00 0.00 0.00 0.00 0.00 0.01 0.01 0.01 0.02 0.02 0.02 0.04 0.06 0.08 0.13 0.12 0.09 0.10 0.11 0.12 0.14 0.12 0.12 0.11 0.10 0.08 0.07 0.06 0.08 0.08 0.10 0.13 0.12 0.09 0.07 0.08 0.10 0.13 0.17 0.20 0.22 0.25 0.26 0.25 0.22
0.00 0.00 0.00 0.00 0.00 0.00 0.00 0.00 0.00 0.01 0.00 0.01 0.01 0.02 0.03 0.04 0.06 0.08 0.09 0.09 0.10 0.11 0.12 0.11 0.11 0.12 0.11 0.12 0.12 0.10 0.09 0.09 0.08 0.09 0.09 0.10 0.09 0.08 0.07 0.06 0.07 0.08 0.11 0.15 0.21 0.27 0.31 0.34 0.33
0.00 0.00 0.00 0.00 0.00 0.00 0.00 0.01 0.01 0.01 0.00 0.01 0.01 0.01 0.02 0.04 0.05 0.07 0.09 0.09 0.11 0.11 0.11 0.11 0.12 0.13 0.12 0.12 0.12 0.09 0.08 0.08 0.08 0.08 0.06 0.05 0.06 0.06 0.04 0.04 0.05 0.06 0.08 0.10 0.14 0.22 0.34 0.44 0.43
0.00 0.00 0.00 0.00 0.00 0.00 0.00 0.03 0.03 0.02 0.02 0.01 0.01 0.01 0.01 0.02 0.03 0.05 0.06 0.07 0.08 0.08 0.08 0.09 0.11 0.12 0.11 0.10 0.10 0.07 0.05 0.05 0.05 0.05 0.04 0.04 0.04 0.05 0.05 0.05 0.05 0.06 0.06 0.07 0.09 0.14 0.20 0.36 0.47
0.00 0.00 0.00 0.00 0.01 0.02 0.03 0.06 0.06 0.04 0.03 0.02 0.02 0.01 0.01 0.01 0.02 0.03 0.04 0.05 0.06 0.06 0.06 0.07 0.06 0.06 0.05 0.04 0.04 0.03 0.03 0.02 0.02 0.02 0.02 0.02 0.02 0.02 0.03 0.03 0.03 0.03 0.05 0.06 0.06 0.09 0.15 0.23 0.32
0.00 0.01 0.01 0.02 0.03 0.04 0.07 0.11 0.10 0.08 0.06 0.06 0.06 0.02 0.01 0.01 0.01 0.02 0.02 0.03 0.03 0.03 0.03 0.03 0.03 0.03 0.03 0.03 0.02 0.02 0.01 0.01 0.01 0.01 0.01 0.01 0.01 0.01 0.01 0.01 0.02 0.02 0.03 0.03 0.05 0.07 0.10 0.18 0.24
0.01 0.02 0.04 0.06 0.04 0.06 0.13 0.18 0.17 0.14 0.15 0.16 0.15 0.06 0.02 0.01 0.00 0.00 0.01 0.01 0.01 0.01 0.01 0.01 0.01 0.01 0.01 0.01 0.01 0.01 0.01 0.01 0.01 0.01 0.01 0.00 0.00 0.00 0.00 0.00 0.00 0.01 0.02 0.03 0.04 0.07 0.12 0.15 0.19
0.03 0.04 0.06 0.07 0.05 0.08 0.11 0.19 0.29 0.29 0.28 0.23 0.15 0.05 0.02 0.01 0.00 0.00 0.00 0.00 0.00 0.00 0.00 0.00 0.00 0.00 0.01 0.01 0.01 0.00 0.00 0.00 0.00 0.00 0.00 0.00 0.00 0.00 0.00 0.00 0.00 0.00 0.00 0.01 0.03 0.06 0.09 0.10 0.14
0.04 0.03 0.03 0.04 0.03 0.07 0.10 0.22 0.39 0.42 0.31 0.19 0.09 0.04 0.02 0.01 0.00 0.00 0.00 0.00 0.00 0.00 0.00 0.00 0.00 0.00 0.00 0.00 0.00 0.00 0.00 0.00 0.00 0.00 0.00 0.00 0.00 0.00 0.00 0.00 0.00 0.00 0.00 0.01 0.02 0.03 0.05 0.06 0.11
0.02 0.02 0.01 0.01 0.02 0.07 0.13 0.25 0.39 0.38 0.29 0.18 0.10 0.05 0.02 0.01 0.00 0.00 0.00 0.00 0.00 0.00 0.00 0.00 0.00 0.00 0.00 0.00 0.00 0.00 0.00 0.00 0.00 0.00 0.00 0.00 0.00 0.00 0.00 0.00 0.00 0.00 0.00 0.01 0.03 0.04 0.06 0.07 0.09
0.01 0.01 0.01 0.02 0.03 0.06 0.13 0.23 0.36 0.34 0.24 0.18 0.10 0.05 0.02 0.01 0.00 0.00 0.00 0.00 0.00 0.00 0.00 0.00 0.00 0.00 0.00 0.00 0.00 0.00 0.00 0.00 0.00 0.00 0.00 0.00 0.00 0.00 0.00 0.00 0.00 0.01 0.01 0.01 0.02 0.03 0.05 0.10 0.14
0.01 0.02 0.02 0.03 0.03 0.05 0.06 0.11 0.23 0.21 0.16 0.14 0.09 0.06 0.01 0.01 0.00 0.00 0.00 0.00 0.00 0.00 0.00 0.00 0.00 0.00 0.00 0.00 0.00 0.00 0.00 0.00 0.00 0.00 0.00 0.00 0.00 0.00 0.00 0.00 0.00 0.00 0.00 0.00 0.01 0.01 0.02 0.05 0.11
0.01 0.02 0.03 0.04 0.06 0.09 0.07 0.17 0.31 0.15 0.09 0.09 0.07 0.03 0.01 0.01 0.00 0.00 0.00 0.00 0.00 0.00 0.00 0.00 0.00 0.00 0.00 0.00 0.00 0.00 0.00 0.00 0.00 0.00 0.00 0.00 0.00 0.00 0.00 0.00 0.00 0.00 0.00 0.00 0.00 0.01 0.02 0.03 0.05
0.01 0.01 0.02 0.04 0.05 0.09 0.11 0.35 0.41 0.11 0.07 0.05 0.02 0.01 0.01 0.00 0.00 0.00 0.00 0.00 0.00 0.00 0.00 0.00 0.00 0.00 0.00 0.00 0.00 0.00 0.00 0.00 0.00 0.00 0.00 0.00 0.00 0.00 0.00 0.00 0.00 0.00 0.00 0.00 0.00 0.00 0.00 0.01 0.03
0.00 0.00 0.00 0.01 0.02 0.06 0.13 0.24 0.20 0.07 0.03 0.01 0.01 0.01 0.00 0.00 0.00 0.00 0.00 0.00 0.00 0.00 0.00 0.00 0.00 0.00 0.00 0.00 0.00 0.00 0.00 0.00 0.00 0.00 0.00 0.00 0.00 0.00 0.00 0.00 0.00 0.00 0.00 0.00 0.00 0.00 0.00 0.00 0.00
0.00 0.00 0.00 0.00 0.00 0.02 0.09 0.14 0.10 0.03 0.01 0.00 0.00 0.00 0.00 0.00 0.00 0.00 0.00 0.00 0.00 0.00 0.00 0.00 0.00 0.00 0.00 0.00 0.00 0.00 0.00 0.00 0.00 0.00 0.00 0.00 0.00 0.00 0.00 0.00 0.00 0.00 0.00 0.00 0.00 0.00 0.00 0.00 0.00
0.00 0.00 0.00 0.00 0.00 0.00 0.03 0.05 0.02 0.01 0.00 0.00 0.00 0.00 0.00 0.00 0.00 0.00 0.00 0.00 0.00 0.00 0.00 0.00 0.00 0.00 0.00 0.00 0.00 0.00 0.00 0.00 0.00 0.00 0.00 0.00 0.00 0.00 0.00 0.00 0.00 0.00 0.00 0.00 0.00 0.00 0.00 0.00 0.00
0.00 0.00 0.00 0.00 0.00 0.00 0.00 0.01 0.00 0.00 0.00 0.00 0.00 0.00 0.00 0.00 0.00 0.00 0.00 0.00 0.00 0.00 0.00 0.00 0.00 0.00 0.00 0.00 0.00 0.00 0.00 0.00 0.00 0.00 0.00 0.00 0.00 0.00 0.00 0.00 0.00 0.00 0.00 0.00 0.00 0.00 0.00 0.01 0.00
MSLP
1012.71 1013.91 1015.07 1015.96 1016.39 1016.26 1015.57 1014.42 1013.01 1011.60 1010.40 1009.60 1009.27 1009.39 1009.85 1010.48 1011.10 1011.57 1011.82 1011.84 1011.69 1011.48 1011.30 1011.25 1011.37 1011.63 1012.00 1012.39 1012.75 1013.04 1013.26 1013.41 1013.56 1013.72 1013.93 1014.18 1014.47 1014.75 1014.99 1015.16 1015.26 1015.31 1015.34 1015.38 1015.46 1015.58 1015.75 1015.93 1016.10
1013.24 1014.51 1015.60 1016.30 1016.45 1015.97 1014.93 1013.49 1011.88 1010.38 1009.21 1008.52 1008.36 1008.67 1009.30 1010.06 1010.77 1011.29 1011.56 1011.60 1011.47 1011.30 1011.19 1011.22 1011.41 1011.74 1012.15 1012.57 1012.94 1013.23 1013.44 1013.59 1013.73 1013.88 1014.09 1014.33 1014.59 1014.84 1015.04 1015.17 1015.24 1015.27 1015.28 1015.32 1015.41 1015.55 1015.73 1015.93 1016.10
1013.79 1015.05 1016.02 1016.48 1016.31 1015.51 1014.17 1012.51 1010.79 1009.29 1008.22 1007.70 1007.74 1008.23 1009.00 1009.85 1010.61 1011.14 1011.40 1011.43 1011.33 1011.20 1011.15 1011.25 1011.51 1011.90 1012.35 1012.79 1013.16 1013.44 1013.63 1013.76 1013.87 1014.01 1014.19 1014.41 1014.64 1014.85 1015.02 1015.12 1015.17 1015.18 1015.20 1015.26 1015.36 1015.52 1015.72 1015.93 1016.11
1014.32 1015.50 1016.28 1016.48 1016.02 1014.94 1013.39 1011.62 1009.89 1008.48 1007.57 1007.24 1007.46 1008.10 1008.97 1009.86 1010.61 1011.10 1011.33 1011.36 1011.27 1011.18 1011.20 1011.37 1011.69 1012.13 1012.60 1013.03 1013.38 1013.63 1013.78 1013.88 1013.96 1014.07 1014.23 1014.42 1014.62 1014.80 1014.94 1015.02 1015.06 1015.09 1015.12 1015.20 1015.33 1015.52 1015.73 1015.95 1016.15
1014.78 1015.81 1016.37 1016.31 1015.60 1014.33 1012.68 1010.90 1009.27 1008.02 1007.31 1007.18 1007.55 1008.28 1009.17 1010.04 1010.73 1011.16 1011.35 1011.35 1011.28 1011.25 1011.34 1011.57 1011.95 1012.40 1012.86 1013.26 1013.57 1013.76 1013.86 1013.92 1013.97 1014.06 1014.19 1014.36 1014.54 1014.70 1014.83 1014.91 1014.96 1015.00 1015.06 1015.17 1015.33 1015.54 1015.77 1015.99 1016.19
1015.13 1015.97 1016.29 1016.01 1015.12 1013.75 1012.11 1010.43 1008.97 1007.94 1007.44 1007.47 1007.95 1008.70 1009.55 1010.33 1010.91 1011.25 1011.38 1011.38 1011.35 1011.39 1011.55 1011.84 1012.25 1012.70 1013.12 1013.46 1013.69 1013.81 1013.85 1013.87 1013.91 1013.98 1014.11 1014.28 1014.45 1014.61 1014.73 1014.81 1014.86 1014.92 1015.01 1015.14 1015.32 1015.55 1015.78 1016.01 1016.20
1015.34 1015.96 1016.05 1015.58 1014.60 1013.23 1011.69 1010.21 1008.98 1008.20 1007.89 1008.05 1008.56 1009.26 1010.00 1010.63 1011.07 1011.31 1011.40 1011.41 1011.44 1011.56 1011.79 1012.14 1012.56 1012.98 1013.34 1013.59 1013.73 1013.78 1013.77 1013.76 1013.79 1013.88 1014.02 1014.19 1014.38 1014.53 1014.65 1014.73 1014.78 1014.85 1014.95 1015.09 1015.29 1015.51 1015.75 1015.97 1016.15
1015.37 1015.76 1015.65 1015.06 1014.05 1012.77 1011.42 1010.19 1009.24 1008.69 1008.56 1008.79 1009.27 1009.86 1010.44 1010.89 1011.19 1011.34 1011.39 1011.44 1011.54 1011.75 1012.06 1012.45 1012.86 1013.23 1013.50 1013.66 1013.71 1013.68 1013.64 1013.62 1013.66 1013.77 1013.95 1014.15 1014.34 1014.49 1014.60 1014.66 1014.71 1014.77 1014.86 1015.00 1015.18 1015.40 1015.62 1015.82 1015.99
1015.18 1015.36 1015.10 1014.44 1013.48 1012.36 1011.26 1010.31 1009.65 1009.34 1009.34 1009.60 1010.01 1010.45 1010.84 1011.11 1011.27 1011.34 1011.39 1011.49 1011.67 1011.97 1012.34 1012.75 1013.14 1013.43 1013.61 1013.67 1013.63 1013.55 1013.48 1013.47 1013.55 1013.70 1013.92 1014.14 1014.34 1014.49 1014.57 1014.61 1014.63 1014.66 1014.72 1014.84 1015.00 1015.19 1015.39 1015.56 1015.71
1014.78 1014.78 1014.42 1013.75 1012.90 1012.00 1011.17 1010.54 1010.16 1010.05 1010.17 1010.43 1010.74 1011.02 1011.22 1011.33 1011.37 1011.39 1011.45 1011.60 1011.87 1012.24 1012.66 1013.07 1013.40 1013.61 1013.69 1013.65 1013.54 1013.42 1013.34 1013.36 1013.48 1013.68 1013.93 1014.17 1014.37 1014.50 1014.56 1014.56 1014.54 1014.53 1014.55 1014.63 1014.75 1014.90 1015.06 1015.20 1015.32
1014.22 1014.09 1013.67 1013.05 1012.35 1011.69 1011.17 1010.83 1010.72 1010.80 1011.00 1011.25 1011.46 1011.60 1011.64 1011.61 1011.56 1011.55 1011.64 1011.84 1012.17 1012.58 1013.01 1013.38 1013.65 1013.76 1013.74 1013.62 1013.45 1013.30 1013.24 1013.29 1013.45 1013.69 1013.96 1014.22 1014.41 1014.51 1014.53 1014.49 1014.43 1014.38 1014.37 1014.40 1014.48 1014.58 1014.69 1014.78 1014.85
1013.60 1013.38 1012.95 1012.42 1011.91 1011.50 1011.26 1011.22 1011.34 1011.58 1011.85 1012.08 1012.21 1012.23 1012.15 1012.03 1011.92 1011.90 1012.00 1012.24 1012.59 1013.00 1013.40 1013.71 1013.88 1013.90 1013.79 1013.59 1013.39 1013.24 1013.19 1013.27 1013.47 1013.73 1014.01 1014.25 1014.42 1014.49 1014.48 1014.41 1014.31 1014.24 1014.19 1014.19 1014.23 1014.27 1014.31 1014.33 1014.34
1013.06 1012.79 1012.39 1011.98 1011.66 1011.49 1011.52 1011.72 1012.04 1012.40 1012.73 1012.94 1013.02 1012.96 1012.80 1012.61 1012.47 1012.44 1012.55 1012.79 1013.12 1013.49 1013.81 1014.03 1014.10 1014.02 1013.84 1013.60 1013.38 1013.24 1013.22 1013.32 1013.53 1013.79 1014.05 1014.26 1014.39 1014.43 1014.39 1014.30 1014.20 1014.12 1014.07 1014.04 1014.04 1014.02 1013.99 1013.93 1013.84
1012.75 1012.47 1012.13 1011.85 1011.71 1011.76 1012.00 1012.39 1012.86 1013.30 1013.66 1013.85 1013.88 1013.77 1013.56 1013.34 1013.18 1013.14 1013.22 1013.43 1013.70 1013.98 1014.20 1014.31 1014.28 1014.13 1013.90 1013.65 1013.44 1013.33 1013.33 1013.44 1013.64 1013.87 1014.08 1014.24 1014.32 1014.32 1014.27 1014.18 1014.10 1014.04 1014.00 1013.97 1013.93 1013.86 1013.75 1013.59 1013.40
1012.76 1012.51 1012.25 1012.10 1012.11 1012.33 1012.73 1013.25 1013.79 1014.27 1014.62 1014.78 1014.77 1014.61 1014.38 1014.14 1013.96 1013.89 1013.93 1014.07 1014.25 1014.41 1014.51 1014.51 1014.40 1014.21 1013.97 1013.74 1013.58 1013.50 1013.53 1013.64 1013.80 1013.97 1014.10 1014.19 1014.20 1014.17 1014.11 1014.05 1014.01 1013.99 1013.99 1013.97 1013.91 1013.79 1013.59 1013.32 1013.02
1013.12 1012.92 1012.76 1012.73 1012.88 1013.22 1013.71 1014.27 1014.82 1015.27 1015.56 1015.66 1015.59 1015.40 1015.14 1014.88 1014.68 1014.58 1014.56 1014.61 1014.68 1014.73 1014.72 1014.63 1014.47 1014.26 1014.06 1013.89 1013.79 1013.77 1013.82 1013.91 1014.02 1014.10 1014.14 1014.12 1014.07 1014.00 1013.94 1013.91 1013.92 1013.96 1014.00 1014.00 1013.93 1013.77 1013.49 1013.13 1012.72
1013.74 1013.64 1013.59 1013.69 1013.95 1014.36 1014.87 1015.41 1015.89 1016.24 1016.41 1016.41 1016.26 1016.01 1015.72 1015.45 1015.23 1015.09 1015.01 1014.97 1014.94 1014.88 1014.78 1014.64 1014.46 1014.29 1014.16 1014.08 1014.07 1014.11 1014.18 1014.25 1014.29 1014.27 1014.19 1014.06 1013.92 1013.81 1013.74 1013.75 1013.81 1013.91 1014.00 1014.03 1013.96 1013.76 1013.43 1012.98 1012.48
1014.46 1014.49 1014.59 1014.82 1015.17 1015.63 1016.12 1016.57 1016.91 1017.09 1017.10 1016.95 1016.69 1016.37 1016.04 1015.75 1015.52 1015.35 1015.23 1015.13 1015.01 1014.88 1014.72 1014.56 1014.41 1014.31 1014.27 1014.30 1014.39 1014.50 1014.59 1014.63 1014.59 1014.46 1014.25 1014.02 1013.79 1013.62 1013.54 1013.57 1013.68 1013.82 1013.96 1014.01 1013.95 1013.73 1013.36 1012.87 1012.32
1015.08 1015.28 1015.57 1015.95 1016.41 1016.89 1017.32 1017.64 1017.80 1017.77 1017.56 1017.23 1016.83 1016.42 1016.05 1015.75 1015.52 1015.35 1015.22 1015.08 1014.93 1014.76 1014.58 1014.43 1014.33 1014.31 1014.38 1014.53 1014.71 1014.88 1014.99 1015.00 1014.88 1014.65 1014.33 1013.98 1013.67 1013.44 1013.34 1013.37 1013.50 1013.67 1013.84 1013.91 1013.86 1013.64 1013.27 1012.77 1012.20
1015.42 1015.84 1016.35 1016.92 1017.50 1018.01 1018.38 1018.55 1018.49 1018.22 1017.78 1017.25 1016.69 1016.19 1015.78 1015.49 1015.29 1015.15 1015.03 1014.91 1014.76 1014.59 1014.42 1014.30 1014.26 1014.32 1014.49 1014.72 1014.99 1015.21 1015.33 1015.31 1015.13 1014.81 1014.39 1013.95 1013.56 1013.28 1013.14 1013.15 1013.28 1013.47 1013.64 1013.72 1013.68 1013.48 1013.13 1012.67 1012.14
1015.38 1016.06 1016.83 1017.62 1018.34 1018.90 1019.21 1019.23 1018.97 1018.45 1017.77 1017.04 1016.34 1015.75 1015.32 1015.05 1014.90 1014.83 1014.78 1014.70 1014.59 1014.45 1014.31 1014.22 1014.23 1014.35 1014.57 1014.86 1015.17 1015.42 1015.54 1015.50 1015.27 1014.89 1014.41 1013.91 1013.46 1013.13 1012.95 1012.94 1013.04 1013.21 1013.37 1013.46 1013.42 1013.25 1012.95 1012.55 1012.10
1014.97 1015.92 1016.96 1017.99 1018.88 1019.51 1019.79 1019.69 1019.24 1018.50 1017.61 1016.69 1015.86 1015.21 1014.78 1014.55 1014.48 1014.51 1014.54 1014.55 1014.50 1014.40 1014.29 1014.23 1014.25 1014.38 1014.62 1014.92 1015.23 1015.48 1015.59 1015.53 1015.28 1014.87 1014.36 1013.83 1013.36 1013.00 1012.79 1012.74 1012.80 1012.93 1013.06 1013.13 1013.11 1012.97 1012.73 1012.42 1012.07
1014.32 1015.53 1016.84 1018.10 1019.15 1019.87 1020.14 1019.95 1019.35 1018.44 1017.37 1016.31 1015.39 1014.70 1014.28 1014.11 1014.14 1014.27 1014.42 1014.51 1014.53 1014.47 1014.38 1014.31 1014.31 1014.41 1014.61 1014.88 1015.16 1015.37 1015.47 1015.39 1015.14 1014.74 1014.24 1013.72 1013.25 1012.89 1012.66 1012.57 1012.59 1012.66 1012.75 1012.79 1012.76 1012.66 1012.48 1012.25 1012.01
1013.61 1015.03 1016.56 1018.03 1019.23 1020.02 1020.31 1020.06 1019.36 1018.32 1017.13 1015.97 1014.99 1014.29 1013.91 1013.81 1013.94 1014.18 1014.42 1014.61 1014.68 1014.66 1014.57 1014.47 1014.41 1014.44 1014.56 1014.75 1014.96 1015.13 1015.19 1015.11 1014.88 1014.52 1014.07 1013.59 1013.15 1012.80 1012.56 1012.44 1012.40 1012.42 1012.44 1012.45 1012.40 1012.31 1012.18 1012.03 1011.89
1013.03 1014.59 1016.27 1017.87 1019.18 1020.03 1020.33 1020.06 1019.30 1018.19 1016.94 1015.73 1014.74 1014.05 1013.71 1013.68 1013.89 1014.22 1014.55 1014.80 1014.92 1014.91 1014.80 1014.64 1014.51 1014.45 1014.47 1014.55 1014.68 1014.78 1014.81 1014.74 1014.54 1014.23 1013.85 1013.44 1013.05 1012.73 1012.49 1012.34 1012.25 1012.20 1012.16 1012.11 1012.03 1011.94 1011.84 1011.75 1011.67
1012.71 1014.30 1016.04 1017.69 1019.04 1019.92 1020.22 1019.95 1019.18 1018.06 1016.80 1015.60 1014.62 1013.97 1013.68 1013.71 1013.97 1014.36 1014.74 1015.02 1015.16 1015.15 1015.01 1014.80 1014.59 1014.42 1014.33 1014.31 1014.34 1014.38 1014.38 1014.31 1014.15 1013.91 1013.60 1013.27 1012.95 1012.67 1012.43 1012.26 1012.12 1012.00 1011.89 1011.78 1011.66 1011.55 1011.45 1011.38 1011.35
1012.67 1014.21 1015.91 1017.51 1018.83 1019.68 1019.98 1019.71 1018.97 1017.89 1016.69 1015.55 1014.63 1014.03 1013.77 1013.84 1014.13 1014.53 1014.93 1015.21 1015.34 1015.31 1015.14 1014.88 1014.59 1014.34 1014.16 1014.05 1014.00 1013.98 1013.95 1013.89 1013.76 1013.58 1013.34 1013.09 1012.82 1012.58 1012.35 1012.15 1011.97 1011.79 1011.61 1011.44 1011.27 1011.12 1011.01 1010.94 1010.92
1012.86 1014.27 1015.82 1017.29 1018.50 1019.29 1019.56 1019.32 1018.63 1017.65 1016.55 1015.52 1014.69 1014.15 1013.94 1014.02 1014.30 1014.68 1015.04 1015.30 1015.41 1015.34 1015.14 1014.84 1014.52 1014.21 1013.97 1013.79 1013.68 1013.61 1013.56 1013.49 1013.39 1013.24 1013.07 1012.86 1012.65 1012.43 1012.21 1011.99 1011.77 1011.54 1011.30 1011.07 1010.85 1010.67 1010.53 1010.44 1010.41
1013.16 1014.36 1015.69 1016.97 1018.01 1018.70 1018.94 1018.73 1018.14 1017.29 1016.35 1015.46 1014.75 1014.29 1014.12 1014.19 1014.43 1014.76 1015.05 1015.25 1015.31 1015.22 1014.99 1014.68 1014.34 1014.02 1013.74 1013.53 1013.38 1013.28 1013.20 1013.12 1013.02 1012.90 1012.75 1012.57 1012.38 1012.18 1011.96 1011.73 1011.48 1011.21 1010.94 1010.66 1010.41 1010.18 1010.01 1009.90 1009.85
1013.41 1014.37 1015.44 1016.48 1017.33 1017.89 1018.10 1017.94 1017.47 1016.79 1016.04 1015.33 1014.76 1014.40 1014.26 1014.31 1014.49 1014.73 1014.94 1015.06 1015.06 1014.93 1014.70 1014.40 1014.07 1013.76 1013.49 1013.27 1013.10 1012.98 1012.87 1012.76 1012.65 1012.51 1012.36 1012.19 1012.01 1011.81 1011.59 1011.35 1011.08 1010.80 1010.50 1010.20 1009.92 1009.68 1009.48 1009.34 1009.26
Thickness
5828 5824 5820 5807 5786 5775 5781 5808 5835 5842 5847 5860 5865 5858 5844 5833 5822 5811 5833 5841 5837 5830 5825 5822 5819 5816 5814 5811 5808 5804 5801 5798 5795 5793 5790 5788 5786 5783 5781 5779 5778 5776 5774 5771 5769 5767 5765 5763 5762
5828 5823 5812 5795 5778 5771 5789 5822 5834 5845 5854 5864 5861 5855 5844 5834 5837 5831 5833 5834 5833 5829 5824 5820 5817 5815 5812 5809 5806 5803 5799 5796 5794 5791 5789 5786 5784 5782 5780 5778 5776 5774 5772 5770 5768 5766 5764 5762 5761
5828 5823 5800 5785 5779 5780 5800 5830 5840 5855 5863 5862 5852 5851 5842 5834 5837 5832 5833 5832 5828 5825 5821 5818 5815 5812 5810 5807 5804 5801 5798 5795 5792 5790 5787 5785 5782 5780 5778 5776 5774 5773 5771 5769 5767 5765 5763 5761 5759
5824 5809 5795 5782 5780 5803 5819 5836 5849 5852 5855 5857 5849 5837 5840 5848 5843 5836 5833 5829 5824 5821 5818 5815 5812 5810 5807 5804 5802 5799 5796 5793 5791 5788 5785 5783 5781 5779 5776 5774 5772 5771 5769 5767 5765 5763 5761 5759 5758
5818 5797 5781 5776 5790 5817 5837 5847 5854 5848 5845 5845 5845 5827 5826 5841 5844 5836 5830 5826 5821 5817 5814 5812 5809 5806 5804 5801 5799 5796 5793 5791 5788 5786 5783 5781 5778 5776 5774 5772 5770 5769 5767 5765 5763 5761 5759 5757 5755
5802 5791 5773 5772 5794 5820 5839 5849 5851 5842 5838 5840 5838 5825 5819 5833 5834 5830 5827 5823 5820 5815 5811 5808 5805 5803 5801 5798 5795 5793 5790 5788 5785 5783 5781 5778 5776 5774 5772 5770 5768 5766 5764 5762 5760 5758 5756 5755 5753
5795 5785 5776 5784 5792 5809 5832 5846 5841 5834 5831 5835 5837 5817 5815 5823 5830 5830 5825 5820 5815 5811 5808 5805 5802 5800 5797 5794 5792 5789 5787 5784 5782 5780 5778 5776 5773 5771 5769 5767 5765 5762 5760 5758 5757 5755 5753 5752 5750
5807 5787 5778 5781 5788 5799 5824 5835 5836 5833 5826 5838 5836 5812 5807 5819 5828 5826 5820 5814 5810 5806 5804 5801 5798 5796 5793 5790 5788 5785 5783 5781 5778 5776 5774 5772 5770 5768 5766 5764 5761 5759 5757 5756 5754 5752 5750 5748 5747
5812 5777 5765 5778 5788 5798 5819 5820 5826 5832 5826 5826 5827 5823 5822 5826 5825 5817 5810 5805 5801 5800 5798 5796 5794 5792 5789 5786 5784 5781 5779 5777 5775 5773 5771 5769 5767 5765 5763 5761 5758 5757 5755 5753 5751 5750 5748 5745 5744
5793 5766 5776 5797 5804 5804 5813 5815 5817 5811 5807 5807 5812 5817 5822 5820 5815 5807 5801 5796 5793 5792 5792 5791 5789 5787 5784 5782 5779 5777 5775 5773 5771 5769 5767 5765 5763 5761 5759 5757 5755 5754 5752 5750 5749 5747 5744 5742 5740
5790 5782 5796 5806 5813 5811 5807 5807 5812 5800 5788 5794 5798 5803 5809 5808 5804 5798 5794 5792 5789 5789 5787 5786 5784 5783 5780 5778 5775 5772 5770 5769 5767 5765 5763 5761 5758 5756 5754 5752 5751 5750 5749 5747 5745 5743 5741 5739 5737
5788 5795 5804 5808 5815 5811 5807 5803 5796 5794 5788 5798 5799 5799 5796 5794 5792 5789 5785 5783 5783 5782 5781 5781 5779 5777 5775 5772 5769 5767 5765 5764 5762 5761 5758 5756 5753 5751 5749 5747 5746 5746 5746 5744 5742 5740 5738 5736 5733
5784 5791 5803 5809 5810 5809 5804 5794 5788 5782 5790 5793 5792 5788 5784 5782 5781 5780 5778 5776 5775 5774 5773 5773 5773 5770 5768 5765 5763 5761 5759 5758 5756 5755 5753 5751 5748 5746 5744 5741 5741 5741 5740 5739 5738 5736 5734 5732 5730
5786 5791 5795 5800 5802 5803 5793 5785 5781 5772 5782 5780 5777 5774 5772 5771 5771 5770 5768 5766 5767 5766 5765 5765 5764 5762 5761 5758 5755 5753 5752 5750 5749 5748 5746 5744 5742 5739 5737 5736 5734 5734 5733 5733 5732 5731 5730 5729 5727
5791 5781 5783 5787 5792 5792 5789 5766 5766 5771 5775 5769 5766 5765 5763 5762 5762 5761 5760 5760 5760 5759 5758 5756 5755 5754 5753 5749 5747 5745 5743 5742 5740 5738 5737 5735 5734 5732 5730 5728 5727 5726 5726 5725 5725 5725 5725 5724 5724
5776 5763 5755 5772 5780 5784 5774 5741 5756 5764 5764 5758 5758 5758 5756 5755 5755 5755 5755 5754 5754 5753 5751 5750 5750 5746 5744 5742 5740 5737 5735 5733 5731 5730 5728 5727 5725 5724 5722 5720 5719 5719 5718 5718 5717 5717 5717 5718 5719
5749 5741 5744 5758 5772 5774 5760 5739 5750 5757 5755 5751 5752 5752 5750 5748 5748 5749 5750 5748 5747 5746 5744 5742 5741 5739 5736 5734 5731 5729 5727 5724 5722 5721 5719 5718 5716 5715 5713 5711 5710 5711 5710 5710 5710 5710 5710 5711 5713
5733 5737 5741 5746 5760 5761 5746 5737 5743 5748 5747 5745 5747 5746 5743 5741 5742 5744 5744 5743 5742 5740 5738 5735 5733 5730 5727 5725 5722 5720 5717 5714 5713 5711 5710 5708 5707 5705 5704 5703 5702 5701 5701 5700 5701 5702 5704 5705 5706
5752 5745 5740 5749 5759 5750 5736 5729 5730 5737 5738 5736 5737 5738 5736 5736 5740 5741 5740 5739 5737 5734 5732 5729 5726 5723 5719 5715 5711 5707 5704 5703 5702 5701 5700 5698 5697 5696 5695 5694 5692 5691 5690 5691 5692 5693 5695 5697 5699
5753 5742 5740 5745 5753 5743 5726 5722 5725 5728 5728 5731 5732 5732 5733 5733 5734 5735 5734 5734 5732 5729 5726 5723 5720 5717 5713 5709 5704 5700 5697 5694 5692 5690 5689 5688 5687 5686 5686 5685 5683 5682 5682 5682 5682 5683 5684 5687 5690
5750 5742 5739 5737 5739 5735 5721 5707 5710 5718 5725 5731 5733 5733 5734 5733 5731 5731 5731 5730 5728 5726 5723 5721 5716 5712 5708 5703 5698 5693 5689 5685 5682 5680 5679 5679 5678 5677 5676 5676 5675 5675 5674 5673 5673 5674 5675 5676 5680
5742 5757 5752 5741 5721 5704 5711 5691 5702 5709 5714 5723 5729 5730 5732 5734 5733 5731 5730 5727 5726 5724 5722 5717 5711 5706 5701 5696 5690 5684 5678 5673 5671 5670 5669 5669 5668 5668 5668 5668 5668 5667 5666 5665 5665 5666 5666 5667 5668
5755 5763 5752 5739 5717 5701 5702 5692 5698 5706 5708 5718 5727 5732 5733 5734 5732 5730 5729 5727 5725 5722 5716 5710 5705 5699 5693 5688 5683 5677 5671 5667 5665 5662 5660 5659 5659 5658 5658 5658 5658 5657 5657 5656 5657 5657 5657 5658 5659
5767 5751 5735 5722 5708 5690 5696 5692 5695 5704 5713 5721 5729 5732 5733 5733 5732 5729 5728 5724 5718 5714 5709 5702 5696 5690 5685 5680 5675 5670 5665 5660 5656 5653 5651 5649 5648 5648 5648 5648 5648 5648 5647 5647 5648 5648 5649 5650 5652
5761 5730 5706 5700 5686 5684 5698 5696 5700 5720 5728 5729 5729 5730 5731 5731 5727 5723 5719 5714 5709 5705 5699 5693 5687 5681 5677 5672 5667 5663 5658 5654 5649 5646 5643 5640 5638 5637 5637 5638 5637 5637 5637 5638 5638 5639 5640 5642 5644
5760 5741 5710 5697 5686 5683 5693 5692 5708 5730 5735 5736 5733 5730 5729 5725 5721 5718 5713 5707 5702 5698 5692 5686 5680 5674 5669 5665 5660 5656 5652 5647 5642 5639 5636 5633 5630 5629 5629 5628 5628 5628 5628 5629 5629 5630 5631 5634 5636
5760 5747 5741 5713 5697 5679 5684 5696 5713 5729 5731 5730 5728 5725 5721 5718 5715 5711 5706 5701 5696 5691 5685 5680 5674 5668 5663 5659 5654 5649 5645 5640 5636 5633 5629 5626 5624 5623 5622 5620 5619 5619 5619 5619 5620 5620 5622 5624 5627
5772 5758 5732 5712 5691 5680 5684 5688 5694 5715 5720 5723 5720 5716 5713 5712 5708 5705 5700 5695 5691 5686 5680 5675 5669 5663 5658 5653 5648 5644 5639 5634 5630 5625 5621 5618 5616 5614 5613 5611 5610 5609 5609 5609 5610 5611 5613 5614 5617
5762 5756 5736 5714 5706 5685 5676 5689 5723 5720 5721 5717 5714 5712 5709 5707 5703 5699 5695 5692 5687 5681 5675 5669 5663 5658 5652 5647 5642 5637 5632 5628 5623 5618 5614 5611 5608 5606 5604 5602 5601 5600 5599 5599 5599 5600 5602 5604 5607
5767 5757 5738 5715 5709 5698 5685 5691 5734 5727 5722 5718 5714 5713 5710 5706 5701 5697 5692 5687 5682 5676 5670 5665 5659 5653 5648 5643 5637 5631 5626 5621 5616 5611 5608 5604 5601 5598 5596 5594 5592 5591 5590 5590 5589 5590 5592 5593 5595